User: anonymous   Login
Location: Allison's Woods
(35.8809°N, 80.8140°W)
Time: 19:52:01
(UTC-05:00)
Language:

Iridium 39 - Orbit

View from above orbital plane
View from above orbital plane
View from above satellite
View from above satellite

Ground track
Ground track

The orbit data is extracted from the following two-line orbital elements,

1 25042U 97069D   14356.52336647  .00000645  00000-0  22313-3 0  1002
2 25042 086.3963 041.5679 0002115 114.3809 245.7608 14.34228814896212
Epoch (UTC): 22 December 2014 12:33:38
Eccentricity: 0.0002115
inclination: 86.3963°
perigee height: 776 km
apogee height: 779 km
right ascension of ascending node: 41.5679°
argument of perigee: 114.3809°
revolutions per day: 14.34228814
mean anomaly at epoch: 245.7608°
orbit number at epoch: 89621

The dashed part of the orbit path shows where the satellite is in the earth's shadow,  

DLR